Location: Les Salelles
(44.4192°N, 4.1044°E)
Time: 12:32:39
(UTC+00:00)

Cosmos 2112 Rocket - Pass Details

Date: 20 January 2021
Orbit: 757 x 786 km, 74.1° (Epoch: 06 March)

Event Time Altitude Azimuth Distance (km) Brightness Sun altitude
Rises 18:54:34 0° 339° (NNW) 3,252 7.5 -24.3°
Reaches altitude 10° 18:56:57 10° 341° (NNW) 2,316 6.6 -24.8°
Maximum altitude 19:02:14 82° 69° (ENE) 777 3.8 -25.7°
Enters shadow 19:02:19 81° 88° (E) 778 3.8 -25.7°
